Flag for Switzerland Weather past 2 weeks in Worb, Bern, Switzerland

30 °F


Feels Like: 27 °F
Forecast: 28 / 41 °F
Wind: 3 mph from South

Location: Bern / Belp

Current Time: Nov 29, 2015 at 12:15:04 AM

Latest Report: Nov 28, 2015 at 11:20 PM

Visibility: N/A

Pressure: 30.24 "Hg (28.11 "Hg at 583m altitude)

Humidity: 100%

Dew point: 30 °F

Location of WorbLocation

Historic Weather in Worb — Graph


Worb temperature yesterday

Maximum temperature yesterday: 39 °F (at 3:20 PM)
Minimum temperature yesterday: 30 °F (at 2:20 AM)
Average temperature yesterday: 34 °F

Past Weeks' High & Low Weather Summary

High63 °F (Nov 15, 2:20 PM)100% (Nov 14, 3:50 AM)30.48 "Hg (Nov 14, 3:50 AM)
Low19 °F (Nov 24, 4:50 AM)51% (Nov 19, 5:20 PM)29.45 "Hg (Nov 21, 12:50 PM)
Average41 °F87%30.06 "Hg
* Reported Nov 13 10:20 PM — Nov 28 10:20 PM, Worb, Weather by CustomWeather, © 2015

Note: Actual official high and low records may vary slightly from our data, if they occured in-between our weather recording intervals... More about our weather records


Worb weather history for previous 24 hours

Time TempWeatherWind HumidityBarometerVisibility
10:20 PM
Sat, Nov 28
32 °FPassing clouds.2 mph93%30.24 "HgN/A
9:20 PM30 °FPassing clouds.3 mph100%30.24 "HgN/A
8:50 PM32 °FPassing clouds.2 mph87%30.24 "HgN/A
8:20 PM34 °FChilly.2 mph87%30.24 "HgN/A
7:50 PM34 °FPassing clouds.1 mph81%30.21 "HgN/A
7:20 PM36 °FChilly.1 mph75%30.21 "HgN/A
6:50 PM37 °FPassing clouds.7 mph70%30.21 "HgN/A
6:20 PM37 °FPassing clouds.9 mph75%30.21 "HgN/A
5:50 PM39 °FMostly cloudy.7 mph75%30.18 "HgN/A
5:20 PM39 °FPartly cloudy.5 mph81%30.18 "HgN/A
4:50 PM37 °FPassing clouds.1 mph93%30.15 "HgN/A
4:20 PM37 °FBroken clouds.2 mph93%30.15 "HgN/A
3:50 PM37 °FBroken clouds.1 mph93%30.15 "HgN/A
3:20 PM39 °FBroken clouds.1 mph87%30.12 "HgN/A
2:50 PM37 °FPartly sunny.1 mph93%30.12 "HgN/A
2:20 PM37 °FPartly sunny.2 mph87%30.12 "HgN/A
1:50 PM37 °FPartly sunny.5 mph93%30.09 "HgN/A
1:20 PM37 °FBroken clouds.5 mph87%30.09 "HgN/A
12:50 PM36 °FPartly sunny.5 mph93%30.09 "HgN/A
12:20 PM36 °FBroken clouds.2 mph93%30.09 "HgN/A
11:50 AM34 °FPartly sunny.2 mph93%30.09 "HgN/A
11:20 AM34 °FBroken clouds.6 mph93%30.09 "HgN/A
10:50 AM32 °FPartly sunny.6 mph100%30.09 "Hg5 mi
10:20 AM32 °FBroken clouds.3 mph100%30.07 "Hg2 mi
9:50 AM32 °FLight snow. More clouds than sun.3 mph100%30.04 "Hg2 mi
9:20 AM32 °FSnow. Overcast.2 mph93%30.04 "Hg1 mi
8:50 AM32 °FSnow flurries. More clouds than sun.3 mph93%30.01 "Hg1 mi
7:20 AM32 °FLight snow. Partly cloudy.3 mph87%29.98 "HgN/A
6:50 AM32 °FLight snow. Partly cloudy.3 mph87%29.98 "HgN/A
6:20 AM32 °FLight snow. Partly cloudy.5 mph87%29.98 "HgN/A
5:50 AM30 °FPassing clouds.6 mph93%29.95 "HgN/A
5:20 AM30 °FPassing clouds.5 mph93%29.98 "HgN/A
4:50 AM30 °FOvercast.5 mph93%29.98 "HgN/A
4:20 AM30 °FOvercast.7 mph86%29.98 "HgN/A
3:50 AM32 °FPassing clouds.3 mph80%29.98 "HgN/A
3:20 AM30 °FPartly cloudy.8 mph86%29.98 "HgN/A
2:50 AM30 °FOvercast.5 mph86%29.98 "HgN/A
2:20 AM30 °FOvercast.9 mph86%29.98 "HgN/A
12:50 AM32 °FPassing clouds.2 mph80%29.98 "HgN/A
Weather by CustomWeather, © 2015

See weather overviewHow to use our weather pages